Find CP3

NORAD ID: 31129 Int'l Des: 2007-012 Owner: CALP Country: US operational
LEOCIRCULARRETROGRADESSO

リアルタイム位置

3D地球を読み込み中...

CP3について

説明を読み込み中...

次回通過

Passes for default location (London). Set your location on the main map for personalized predictions.

高度履歴

Loading altitude history...

軌道要素

1 31129U 07012N 26119.85646994 .00001185 00000-0 21692-3 0 9994
2 31129 98.4514 98.2550 0081180 210.7963 148.8463 14.65790521 11651
Epoch: Apr 29, 2026 • Age: 15 hours

現在のステータス

高度 731.3 km
速度 7.46 km/s
衛星直下点 10.94°N, 68.57°E
打ち上げ日 Apr 17, 2007
運用期間 19 years
タイプ other

技術仕様

分類 Payload
質量 1.00 kg
乾燥質量 1.00 kg
総質量 1.00 kg
長さ 0.10 m
直径 0.10 m
スパン 0.20 m
形状 Box + Ant
製造者 CALP
バスタイプ Cubesat 1U
フェーズステータス In Orbit
所有者/国 CALP/US

Most Searched